Tracking 22779 objects as of 13-Apr-2021
HD Live streaming from Space Station
objects crossing your sky now

METEOR 1-27

Track METEOR 1-27 now!
10-day predictions
METEOR 1-27 is classified as:


NORAD ID: 9903
Int'l Code: 1977-024A
Perigee: 845.6 km
Apogee: 899.2 km
Inclination: 81.3 °
Period: 102.3 minutes
Semi major axis: 7243 km
RCS: 4.395 m2 (large)
Launch date: April 5, 1977
Source: Commonwealth of Independent States (former USSR) (CIS)
Launch site: PLESETSK MISSILE AND SPACE COMPLEX (PKMTR)
aabbcc
Your satellite tracking list
Your tracking list is empty




NASA's NSSDC Master Catalog

Two Line Element Set (TLE):
1  9903U 77024A   21103.17451223 -.00000046  00000-0 -33861-4 0  9990
2  9903  81.2535 168.9835 0037004 306.9007  52.8774 14.08277086261562
Source of the keplerian elements: AFSPC